TimeHST,TemperatureF,Dew PointF,Humidity,Sea Level PressureIn,VisibilityMPH,Wind Direction,Wind SpeedMPH,Gust SpeedMPH,PrecipitationIn,Events,Conditions,WindDirDegrees,DateUTC
12:53 AM,70.0,63.0,78,30.14,10.0,SW,3.5,-,N/A,,Mostly Cloudy,230,2012-10-13 10:53:00
1:53 AM,70.0,63.0,78,30.13,10.0,WSW,8.1,-,N/A,,Mostly Cloudy,240,2012-10-13 11:53:00
2:53 AM,69.1,62.1,78,30.11,10.0,SW,6.9,-,N/A,,Clear,230,2012-10-13 12:53:00
3:53 AM,68.0,61.0,78,30.10,10.0,SW,5.8,-,N/A,,Scattered Clouds,230,2012-10-13 13:53:00
4:53 AM,66.9,60.1,79,30.11,10.0,SW,5.8,-,N/A,,Clear,220,2012-10-13 14:53:00
5:53 AM,66.9,59.0,76,30.11,10.0,WSW,6.9,-,N/A,,Scattered Clouds,240,2012-10-13 15:53:00
6:53 AM,68.0,57.9,70,30.13,10.0,SW,8.1,-,N/A,,Mostly Cloudy,230,2012-10-13 16:53:00
7:53 AM,72.0,59.0,64,30.14,10.0,WSW,4.6,-,N/A,,Mostly Cloudy,240,2012-10-13 17:53:00
8:53 AM,75.0,66.0,73,30.16,10.0,SE,5.8,-,0.00,Rain,Light Rain,130,2012-10-13 18:53:00
9:53 AM,79.0,70.0,74,30.15,10.0,East,10.4,-,0.00,,Mostly Cloudy,80,2012-10-13 19:53:00
10:53 AM,80.1,69.1,69,30.15,10.0,Variable,4.6,-,N/A,,Mostly Cloudy,0,2012-10-13 20:53:00
11:53 AM,82.9,68.0,60,30.12,10.0,NE,5.8,-,N/A,,Mostly Cloudy,40,2012-10-13 21:53:00
12:53 PM,82.9,68.0,60,30.09,10.0,NE,8.1,-,N/A,,Partly Cloudy,40,2012-10-13 22:53:00
1:53 PM,82.9,68.0,60,30.08,10.0,NNE,8.1,-,N/A,,Partly Cloudy,30,2012-10-13 23:53:00
2:53 PM,82.9,68.0,60,30.08,10.0,NE,8.1,-,N/A,,Partly Cloudy,40,2012-10-14 00:53:00
3:53 PM,82.0,66.0,58,30.08,10.0,ENE,10.4,-,N/A,,Partly Cloudy,60,2012-10-14 01:53:00
4:53 PM,80.1,68.0,67,30.10,10.0,NE,5.8,-,N/A,,Scattered Clouds,50,2012-10-14 02:53:00
5:53 PM,78.1,66.9,68,30.12,10.0,Calm,Calm,-,N/A,,Mostly Cloudy,0,2012-10-14 03:53:00
6:07 PM,77.0,66.2,69,30.12,10.0,NE,3.5,-,N/A,,Scattered Clouds,40,2012-10-14 04:07:00
6:53 PM,77.0,68.0,74,30.13,10.0,Calm,Calm,-,N/A,,Mostly Cloudy,0,2012-10-14 04:53:00
7:43 PM,75.2,69.8,83,30.16,10.0,Variable,3.5,-,N/A,,Overcast,0,2012-10-14 05:43:00
7:53 PM,73.9,69.1,85,30.16,9.0,NNE,8.1,-,0.00,Rain,Light Rain,20,2012-10-14 05:53:00
8:53 PM,73.0,69.1,87,30.17,10.0,West,8.1,-,0.00,,Mostly Cloudy,280,2012-10-14 06:53:00
9:53 PM,72.0,68.0,87,30.18,10.0,WSW,3.5,-,N/A,,Clear,250,2012-10-14 07:53:00
10:53 PM,71.1,66.9,87,30.17,10.0,SW,4.6,-,N/A,,Clear,230,2012-10-14 08:53:00
11:53 PM,70.0,66.0,87,30.16,10.0,SW,4.6,-,N/A,,Clear,230,2012-10-14 09:53:00